Location: Malvern Link
(52.1333°N, 2.3000°W)
Time: 16:34:31
(UTC+00:00)

Cosmos 1634 Rocket - Pass Details

Date: 07 December 2021
Orbit: 959 x 993 km, 82.9° (Epoch: 23 January)

Event Time Altitude Azimuth Distance (km) Brightness Sun altitude
Rises 18:52:48 0° 222° (SW) 3,700 7.7 -25.6°
Reaches altitude 10° 18:55:37 10° 232° (SW) 2,756 7.1 -26.0°
Maximum altitude 19:01:13 32° 294° (WNW) 1,633 5.6 -26.9°
Drops below altitude 10° 19:06:50 10° 357° (N) 2,764 6.4 -27.7°
Sets 19:09:41 0° 7° (N) 3,713 7.0 -28.2°
